#timestamp,LO_Frequency,Hit,StdDev 
1606791615.4,286047002.5,N
1606791635.3,286047000.9,N
1606791655.1,286047002.6,N
1606791656.0,286047002.6,N
1606791675.8,286046999.4,N
1606791695.7,286046998.7,N
1606791715.5,286046999.2,N
1606791735.3,286046999.3,N
1606791755.2,286046997.0,N
1606791775.0,286046997.9,N
1606791775.9,286046997.9,N
1606791795.8,286047000.2,N
1606791815.6,286047000.4,N
1606791835.4,286046999.7,N
1606791855.3,286047001.3,N
1606791875.1,286047000.2,N
1606791876.0,286047000.2,N
1606791895.8,286047000.5,N
1606791915.7,286047000.0,N
1606791935.5,286047000.4,N
1606791955.3,286047000.9,N
1606791975.2,286046998.3,N
1606791995.0,286047002.2,N
1606791995.9,286047002.2,N
1606792015.8,286047004.4,N
1606792035.6,286047001.0,N
1606792055.4,286047002.8,N
1606792075.3,286047001.5,N
1606792095.1,286047005.5,Y
1606792115.8,286047001.4,P
1606792135.7,286047001.7,P
1606792155.5,286047003.2,P
1606792175.4,286047004.1,Y
1606792195.2,286047000.9,P
1606792215.0,286046999.0,N
1606792215.9,286046999.0,N
1606792235.8,286047000.1,N
1606792255.6,286047000.2,N
1606792275.4,286046999.7,N
1606792295.3,286047000.2,N
1606792315.1,286047002.3,N
1606792335.9,286046999.8,N
1606792355.7,286046998.1,N
1606792375.5,286047000.6,N
1606792395.4,286047000.1,N
1606792415.2,286047002.7,N
1606792435.0,286047001.2,N
1606792435.9,286047001.2,N
1606792455.8,286046998.3,N
1606792475.6,286047001.2,N
1606792495.5,286046998.6,N
1606792515.3,286046998.9,N
1606792535.1,286046998.8,N
1606792555.9,286046999.1,N
1606792575.7,286046997.6,N
1606792595.6,286046998.4,N
1606792615.4,286046997.8,N
1606792635.2,286046997.3,N
1606792655.1,286046996.6,N
1606792656.0,286046996.6,N
1606792675.8,286046997.4,N
1606792695.6,286046999.5,N
1606792715.5,286046999.1,N
1606792735.3,286046998.1,N
1606792755.2,286046999.9,N
1606792775.9,286047000.6,N
1606792795.7,286047000.1,N
1606792815.6,286047002.4,N
1606792835.4,286047001.2,N
1606792855.3,286046999.7,N
1606792875.1,286047000.6,N
1606792876.0,286047000.6,N
1606792895.8,286047002.3,N
1606792915.7,286047002.4,N
1606792935.5,286047000.9,N
1606792955.4,286047001.9,N
1606792975.2,286047002.1,N
1606792995.0,286047002.0,N
1606792995.9,286047002.0,N
1606793015.8,286047001.2,N
1606793035.6,286046998.6,N
1606793055.5,286046998.4,N
1606793075.3,286046997.0,N
1606793095.1,286046999.5,N
1606793115.9,286046998.5,N
1606793135.7,286046998.9,N
1606793155.5,286046998.8,N
1606793175.4,286046996.9,N
1606793195.2,286046998.4,N
1606793215.1,286046998.5,N
1606793216.0,286046998.5,N
1606793235.8,286046999.0,N
1606793255.6,286046999.6,N
1606793275.5,286046998.3,N
1606793295.3,286047000.9,N
1606793315.1,286046997.3,N
1606793335.9,286046995.7,N
1606793355.7,286046993.3,Y
1606793375.6,286046997.7,P
1606793395.4,286046997.1,N
1606793415.2,286046998.4,N
1606793435.1,286047000.9,N
1606793436.0,286047000.9,N
1606793455.8,286046998.5,N
1606793475.7,286047000.8,N
1606793495.5,286047002.3,N
1606793515.3,286047001.5,N
1606793535.2,286047002.5,N
1606793555.9,286047004.2,N
1606793575.7,286047004.7,N
1606793595.6,286047003.4,N
1606793615.4,286046999.8,N
1606793635.2,286047000.1,N
1606793655.1,286046999.9,N
1606793656.0,286046999.9,N
1606793675.8,286046999.9,N
1606793695.7,286046999.5,N
1606793715.5,286046999.9,N
1606793735.3,286047000.0,N
1606793755.2,286047000.2,N
1606793775.0,286047001.7,N
1606793775.9,286047001.7,N
1606793795.8,286047000.4,N
1606793815.6,286046998.5,N
1606793835.4,286046999.1,N
1606793855.3,286046996.8,N
1606793875.1,286046996.6,N
1606793895.8,286046999.3,N
1606793915.7,286047001.7,N
1606793935.5,286047005.3,N
1606793955.3,286047005.4,N
1606793975.2,286047005.9,N
1606793995.0,286047007.3,Y
1606793995.9,286047007.3,P
1606794015.8,286047003.1,N
1606794035.6,286047001.9,N
1606794055.4,286047004.8,N
1606794075.3,286047003.4,N
1606794095.1,286047001.9,N
1606794115.9,286047001.6,N
1606794135.7,286047005.9,Y
1606794155.5,286047002.3,P
1606794175.4,286046998.6,P
1606794195.2,286046999.6,N
1606794215.0,286046996.9,N
1606794215.9,286046996.9,N
1606794235.8,286046996.9,N
1606794255.6,286046996.9,N
1606794275.5,286046998.1,N
1606794295.3,286047001.1,N
1606794315.1,286046998.5,N
1606794335.9,286046998.1,N
1606794355.7,286046998.6,N
1606794375.5,286047002.4,N
1606794395.4,286046998.6,N
1606794415.2,286046999.8,N
1606794435.0,286047001.1,N
1606794436.0,286047001.1,N
1606794455.8,286047002.4,N
1606794475.6,286047002.6,N
1606794495.5,286047002.5,N
1606794515.3,286047004.2,N
1606794535.1,286047000.6,N
1606794555.9,286046998.2,N
1606794575.7,286046998.3,N
1606794595.5,286046996.5,N
1606794615.4,286046998.8,N
1606794635.2,286046999.3,N
1606794655.1,286047000.7,N
1606794656.0,286047000.7,N
1606794675.8,286047000.0,N
1606794695.6,286047002.3,N
1606794715.5,286047000.3,N
1606794735.3,286046998.4,N
1606794755.1,286046999.6,N
1606794775.9,286046999.5,N
1606794795.7,286046997.8,N
1606794815.6,286046997.1,N
1606794835.4,286046999.1,N
1606794855.2,286047000.3,N
1606794875.1,286047000.6,N
1606794876.0,286047000.6,N
1606794895.8,286046998.8,N
1606794915.7,286047005.5,Y
1606794935.5,286047002.6,P
1606794955.3,286047002.7,N
1606794975.2,286047000.6,N
1606794995.9,286047000.5,N
1606795015.7,286046998.8,N
1606795035.6,286047001.2,N
1606795055.4,286047000.2,N
1606795075.2,286047000.1,N
1606795095.1,286047001.6,N
1606795096.0,286047001.6,N
1606795115.8,286047005.2,Y
1606795135.7,286047003.3,P
1606795155.5,286047004.3,P
1606795175.3,286047004.1,N
1606795195.2,286047003.1,N
